Back to catalog

STARLINK-33551

AliveCommunicationsVLEO
NORAD 62110·PAYLOAD·🇺🇸 United States

Launched Nov 25, 2024 from Cape Canaveral Space Force Station

Loading…

Next Passes (next 24 hours)

TLE

FreshSource: CelesTrak SupGP

Epoch: Sep 14, 2026, 21:19 UTC

1 62110C 24220Y   26257.88868056  .00025312  00000+0  91692-3 0  2570
2 62110  43.0023 217.0851 0001271 257.7675 197.4494 15.27562041    10

Track STARLINK-33551 in real time with AllMySat

Download on the App Store